Location: Newark
(41.6500°N, 71.4833°W)
Time: 04:33:40
(UTC+00:00)

SR - All Passes

Search period start: 24 January 2020 00:00
Search period end: 03 February 2020 00:00
Orbit: 574 x 882 km, 66.7° (Epoch: 23 January)

Date Brightness Start Highest point End Pass type
(mag) Time Alt. Az. Time Alt. Az. Time Alt. Az.
24 Jan - 01:36:10 10° SE 01:38:59 14° ESE 01:41:51 10° ENE night (unlit)
24 Jan - 03:14:25 10° SSW 03:20:15 90° SE 03:26:14 10° NNE night (unlit)
24 Jan - 04:58:59 10° W 05:03:11 20° NW 05:07:26 10° N night (unlit)
24 Jan - 10:15:24 10° N 10:18:30 15° NE 10:21:29 10° ENE visible
24 Jan - 11:56:10 10° NNW 12:01:44 70° ENE 12:06:48 10° SE daylight
24 Jan - 13:39:58 10° WNW 13:43:03 16° WSW 13:46:00 10° SW daylight
25 Jan - 02:25:08 10° S 02:30:40 49° ESE 02:36:23 10° NE night (unlit)
25 Jan - 04:07:50 10° WSW 04:13:02 32° NW 04:18:17 10° NNE night (unlit)
25 Jan - 11:06:40 10° NNW 11:11:52 38° NE 11:16:39 10° ESE visible
25 Jan - 12:49:05 10° NW 12:53:50 32° WSW 12:58:15 10° S daylight
26 Jan - 01:36:37 10° SSE 01:41:17 26° ESE 01:46:05 10° NE night (unlit)
26 Jan - 03:17:21 10° SW 03:23:03 54° NW 03:28:54 10° NNE night (unlit)
26 Jan - 05:03:49 10° WNW 05:06:32 13° NW 05:09:15 10° N night (unlit)
26 Jan - 10:17:26 10° N 10:21:46 22° NE 10:25:51 10° E visible
26 Jan - 11:58:58 10° NW 12:04:25 64° WSW 12:09:22 10° SSE daylight
27 Jan - 00:49:33 10° SE 00:52:05 13° ESE 00:54:38 10° ENE night (unlit)
27 Jan - 02:27:28 10° SSW 02:33:18 86° ESE 02:39:17 10° NNE night (unlit)
27 Jan - 04:11:51 10° W 04:16:11 21° NW 04:20:32 10° N night (unlit)
27 Jan - 09:28:35 10° N 09:31:27 14° NE 09:34:14 10° ENE visible
27 Jan - 11:09:14 10° NNW 11:14:46 66° ENE 11:19:47 10° SE visible
27 Jan - 12:52:52 10° WNW 12:56:08 17° WSW 12:59:15 10° SW daylight
28 Jan - 01:38:14 10° S 01:43:44 46° ESE 01:49:23 10° NE night (unlit)
28 Jan - 03:20:46 10° WSW 03:26:02 33° NW 03:31:21 10° NNE night (unlit)
28 Jan - 10:19:45 10° NNW 10:24:52 36° NE 10:29:34 10° ESE visible
28 Jan - 12:02:04 10° NW 12:06:54 33° WSW 12:11:21 10° S daylight
29 Jan - 00:49:47 10° SSE 00:54:22 24° ESE 00:59:02 10° NE night (unlit)
29 Jan - 02:30:20 10° SW 02:36:05 57° NW 02:41:57 10° NNE night (unlit)
29 Jan - 04:16:37 10° WNW 04:19:30 14° NW 04:22:24 10° N night (unlit)
29 Jan - 09:30:32 10° N 09:34:44 21° NE 09:38:42 10° E visible
29 Jan - 11:12:00 10° NW 11:17:27 68° WSW 11:22:24 10° SSE visible
30 Jan - 00:03:01 10° ESE 00:05:10 12° E 00:07:21 10° E night (unlit)
30 Jan - 01:40:31 10° SSW 01:46:21 81° ESE 01:52:19 10° NNE night (unlit)
30 Jan - 03:24:44 10° W 03:29:10 21° NW 03:33:37 10° N night (unlit)
30 Jan - 08:41:47 10° N 08:44:25 13° NE 08:46:58 10° ENE visible
30 Jan - 10:22:18 10° NNW 10:27:47 62° ENE 10:32:45 10° SE visible
30 Jan - 12:05:46 10° WNW 12:09:12 18° WSW 12:12:27 10° SW daylight
31 Jan - 00:51:19 10° S 00:56:48 44° ESE 01:02:23 10° NE visible
31 Jan - 02:33:43 10° WSW 02:39:02 35° NW 02:44:26 10° NNE night (unlit)
31 Jan - 09:32:50 10° NNW 09:37:52 34° NE 09:42:29 10° ESE visible
31 Jan - 11:15:04 10° NW 11:19:57 35° WSW 11:24:26 10° S visible
01 Feb - 00:02:59 10° SSE 00:07:27 23° ESE 00:11:59 10° ENE visible
01 Feb - 01:43:20 10° SW 01:49:07 60° WNW 01:55:00 10° NNE visible
01 Feb - 03:29:24 10° WNW 03:32:29 14° NW 03:35:33 10° N night (unlit)
01 Feb - 08:43:40 10° N 08:47:43 20° NE 08:51:33 10° E visible
01 Feb - 10:25:02 10° NNW 10:30:29 73° WSW 10:35:25 10° SSE visible
01 Feb - 23:16:34 10° ESE 23:18:15 11° E 23:19:58 10° E visible
02 Feb - 00:53:33 10° SSW 00:59:23 77° ESE 01:05:21 10° NNE visible
02 Feb - 02:37:37 10° W 02:42:10 22° NW 02:46:43 10° N visible
02 Feb - 07:55:00 10° N 07:57:22 13° NNE 07:59:41 10° ENE visible
02 Feb - 09:35:21 10° NNW 09:40:47 58° NE 09:45:43 10° SE visible
02 Feb - 11:18:41 10° WNW 11:22:16 19° WSW 11:25:39 10° SSW visible
